Location: PACMO
(41.3967°N, 90.3760°W)
Time: 07:39:26
(UTC-05:00)

Daily predictions for brighter satellites

Satellite Brightness Start Highest point End
(mag) Time Altitude Azimuth Time Altitude Azimuth Time Altitude Azimuth
Resurs 1-3 4.2 20:49:39 10° S 20:53:58 62° W 20:58:20 10° NNW
Cosmos 2084 3.2 20:50:28 10° NW 20:54:18 84° NE 20:58:16 10° SE
Lacrosse 4 Rocket 2.9 20:51:42 10° N 20:55:31 26° NE 20:59:16 10° ESE
H-2A ROCKET BODY 3.4 20:54:26 10° S 20:55:35 11° SSE 20:57:05 10° SE
ATLAS 5 CENTAUR R/B 3.0 20:52:31 10° NNW 20:58:11 44° NE 21:04:21 10° ESE
Aureole 3 3.6 20:56:31 10° SSE 20:59:08 28° E 21:01:45 10° NNE
Spot 2 Rocket 4.1 20:54:53 10° S 20:59:56 61° WSW 21:05:01 10° NNW
USA 215 4.2 20:55:11 10° E 21:01:10 39° NNE 21:07:09 10° NW
Cosmos 1869 Rocket 3.6 21:03:29 10° S 21:07:43 57° E 21:12:01 10° NNE
Cosmos 1408 3.3 21:05:35 10° SSE 21:08:58 34° E 21:12:23 10° NNE
Cosmos 1346 Rocket 3.4 21:06:03 10° NNW 21:09:58 59° W 21:13:55 10° S
SPOT 5 4.4 21:06:31 10° ESE 21:10:40 24° ENE 21:14:47 10° NNE
SL-19 R/B 4.5 21:05:33 10° SSE 21:11:20 87° ENE 21:17:35 10° NNW
Lacrosse 5 rocket 1.7 21:10:06 10° WSW 21:13:37 58° NW 21:17:13 10° NE
ARGOS 4.2 21:10:08 10° SE 21:14:40 30° ENE 21:19:16 10° N
COSMOS 2455 3.2 21:11:39 10° SW 21:17:38 71° WNW 21:23:40 10° NNE
CENTAUR R/B 2.5 21:11:58 10° SSW 21:17:52 70° ESE 21:24:38 10° NE
Cosmos 372 Rocket 4.0 21:18:59 10° S 21:24:00 58° ESE 21:29:01 10° NNE
Envisat 3.9 21:22:14 10° S 21:27:07 49° W 21:32:04 10° NNW
Meteor 1-27 Rocket 4.3 21:21:47 10° N 21:27:12 41° ENE 21:31:31 15° SE
Cosmos 1939 Rocket 3.6 21:24:22 10° S 21:28:25 55° W 21:32:28 10° NNW
Meteor 1-10 Rocket 4.3 21:23:50 10° N 21:29:47 74° ENE 21:35:40 10° SSE
Helios 1A 3.2 21:26:07 10° S 21:30:18 72° WSW 21:34:31 10° NNW
Meteor 2-6 Rocket 4.4 21:25:02 10° N 21:31:00 69° E 21:36:48 11° SSE
Cosmos 1825 2.1 21:29:08 10° S 21:32:52 67° E 21:36:38 10° NNE
Cosmos 2221 Rocket 3.6 21:28:31 10° N 21:32:59 84° W 21:37:27 10° S
SPOT 1/Viking Rocket 4.5 21:39:33 18° ESE 21:42:43 33° ENE 21:47:21 10° N
Cosmos 1269 Rocket 4.0 21:38:25 10° NNW 21:43:44 83° ENE 21:47:51 17° SSE
Cosmos 1125 Rocket 3.7 21:38:54 10° SSW 21:44:08 77° WNW 21:49:24 10° NNE
MetOp-A 4.2 21:40:22 15° SSE 21:44:45 68° ENE 21:50:05 10° N
Cosmos 1782 3.3 21:47:19 10° NNW 21:51:16 59° W 21:54:52 12° S
Cosmos 2227 Rocket 4.4 21:49:15 10° NNE 21:51:26 12° NE 21:53:36 10° ENE
Cosmos 1943 Rocket 2.5 21:51:35 10° SSW 21:57:09 68° WNW 22:02:42 10° NNE
Nadezhda 4 Rocket 4.1 21:53:34 15° SSE 21:58:42 57° E 22:04:42 10° NNE
Cosmos 1092 Rocket 4.5 21:56:29 21° SE 21:59:59 40° E 22:05:39 10° NNE
Cosmos 2219 4.2 21:55:49 10° N 22:01:03 35° ENE 22:04:04 21° ESE
Cosmos 158 Rocket 4.4 21:59:13 10° NNW 22:03:58 54° WSW 22:07:35 17° S
Okean 1-7 4.5 22:01:13 10° NNW 22:05:16 36° W 22:09:16 10° SSW
Intercosmos 25 Rocket 4.3 21:59:06 10° N 22:05:55 57° ENE 22:08:07 29° SE
YAOGAN 11 4.2 22:04:23 28° SSE 22:06:41 66° ENE 22:11:10 10° N
USA 245 4.5 22:02:16 20° SSE 22:06:46 81° ENE 22:13:07 10° N
Cosmos 1340 3.1 22:03:11 10° NNW 22:06:56 58° W 22:09:15 21° S
Cosmos 494 Rocket 4.4 22:02:46 10° N 22:07:50 49° ENE 22:10:11 29° SE
Cosmos 1862 3.5 22:09:35 15° SSW 22:12:48 70° W 22:16:47 10° N
Cosmos 1908 Rocket 4.3 22:12:37 32° ESE 22:13:29 35° E 22:17:31 10° NNE
Cosmos 1867 3.7 22:13:17 10° NNW 22:18:43 65° NE 22:21:08 33° SE
ISS -0.9 22:16:37 10° WNW 22:18:59 18° NNW 22:21:20 10° NNE
Terra 2.7 22:20:55 29° ESE 22:22:16 35° ENE 22:26:35 10° N
Cosmos 2344 3.7 22:15:16 10° SW 22:22:55 85° NW 22:31:31 10° NE
H-2A R/B 2.1 22:20:37 30° SSE 22:23:20 80° ENE 22:28:39 10° N
BREEZE-M DEB (TANK) 3.6 22:21:26 10° WNW 22:24:59 78° NNE 22:33:59 20° ESE
ERS-1 Rocket 4.0 22:23:44 14° SSW 22:27:36 40° W 22:32:21 10° NNW
Cosmos 405 Rocket 4.1 22:27:12 10° NNE 22:29:59 23° ENE 22:29:59 23° ENE
Lacrosse 4 Rocket 2.8 22:30:14 10° NW 22:34:16 34° WSW 22:36:05 24° SSW
Cosmos 1733 Rocket 3.7 22:33:26 18° SSW 22:36:24 52° W 22:40:40 10° N
Cosmos 1782 Rocket 4.1 22:41:10 40° E 22:41:10 40° E 22:45:12 10° NNE
ATLAS CENTAUR R/B 1.1 22:41:19 60° S 22:41:58 78° ESE 22:45:50 10° NE
Cosmos 1437 2.8 22:39:00 10° NNW 22:41:58 72° NW 22:41:58 72° NW
Nimbus 7 Rocket 4.3 22:36:41 10° NNE 22:42:36 88° WNW 22:46:30 22° SSW
ATLAS 5 CENTAUR R/B 3.4 22:37:20 10° NW 22:42:55 38° WSW 22:46:13 23° SSW
USA 215 3.2 22:40:49 35° SE 22:43:50 77° SW 22:50:26 10° NW
Cosmos 2297 Rocket 3.7 22:41:45 10° N 22:46:18 24° NE 22:48:21 20° E
Cosmos 2195 Rocket 4.5 22:45:28 37° SSE 22:48:00 67° E 22:54:17 10° NNE
SPOT 5 3.8 22:45:33 25° SSW 22:48:23 47° W 22:53:29 10° NNW
Cosmos 1656 Rocket 4.3 22:46:13 10° SW 22:51:33 55° WNW 22:57:00 10° NNE
Lacrosse 5 rocket 4.4 22:51:52 10° NW 22:53:32 13° NNW 22:55:14 10° N
ARGOS 4.3 22:51:39 20° SSW 22:54:47 36° W 22:59:42 10° NNW
Sich 1 Rocket 3.5 22:56:04 59° SSW 22:56:54 83° W 23:01:20 10° N
Meteor 2-20 Rocket 4.4 22:56:47 32° SSW 22:59:51 82° W 23:06:00 10° N
Cosmos 1975 Rocket 3.1 22:58:12 10° N 23:02:38 61° E 23:02:42 61° E
Spot 4 4.3 23:04:09 45° E 23:04:33 47° ENE 23:09:10 10° N
CZ-4 R/B 4.1 23:04:13 10° NNE 23:08:21 51° E 23:08:21 51° E
CARTOSAT-1 3.5 23:10:22 69° SW 23:10:36 71° WSW 23:14:56 10° NNW
Cosmos 1655 Rocket 3.9 23:11:03 52° SSE 23:12:31 69° E 23:18:44 10° NNE
Cosmos 1378 Rocket 4.0 23:09:12 10° NNW 23:13:33 54° W 23:14:05 50° WSW
Cosmos 1633 4.3 23:15:22 25° NE 23:15:22 25° NE 23:17:07 10° NNE
Cosmos 2251 Rocket 4.0 23:08:46 10° NNW 23:13:51 51° WSW 23:14:57 44° SW
Cosmos 2278 4.4 23:17:39 38° E 23:17:39 38° E 23:22:13 10° NE
Cosmos 2026 Rocket 3.9 23:15:05 44° SSW 23:17:12 84° W 23:23:31 10° N
Okean 3 4.4 23:16:11 10° NNW 23:20:04 38° W 23:20:28 37° WSW
IGS 5A 3.8 23:20:17 57° W 23:20:17 57° W 23:24:19 10° NNW
Meteor 2-11 Rocket 4.4 23:15:25 10° N 23:21:35 75° E 23:22:43 59° SE
Meteor 1-20 Rocket 4.2 23:22:49 58° SSW 23:24:01 88° W 23:29:45 10° N
H-2A R/B 2.2 23:27:42 66° NW 23:27:42 66° NW 23:31:22 10° NNW
CZ-2C R/B 3.9 23:23:36 10° NE 23:26:55 25° ENE 23:26:55 25° ENE
USA 229 DEB 4.3 23:30:45 37° E 23:30:45 37° E 23:36:17 10° NE
USA 229 4.3 23:30:54 37° E 23:30:54 37° E 23:36:22 10° NE
Cosmos 1428 Rocket 4.4 23:32:18 56° S 23:33:47 88° W 23:40:09 10° N
Cosmos 1417 Rocket 4.5 23:29:09 10° N 23:35:26 82° W 23:36:44 59° S
Cosmos 2227 Rocket 2.2 23:30:56 10° NNW 23:36:35 69° ENE 23:37:06 65° E
CZ-4C R/B 4.1 23:32:03 10° NNW 23:38:13 32° NE 23:42:51 18° E
Milstar 3 4.1 23:35:20 10° WSW 23:41:17 28° SSW 23:41:17 28° SSW
S3M 3.8 23:37:17 10° N 23:43:28 89° E 23:44:18 69° S
Cosmos 1812 4.2 23:39:58 10° NNW 23:42:56 31° WNW 23:42:56 31° WNW
Cosmos 2219 4.2 23:40:00 10° NW 23:45:11 36° WSW 23:45:59 34° WSW
Meteor 1-19 Rocket 4.3 23:40:51 10° N 23:46:41 64° ENE 23:47:03 63° E
GEOS 3 Rocket 3.7 23:46:59 60° WSW 23:46:59 60° WSW 23:52:04 10° NW
Cosmos 407 Rocket 4.4 23:44:23 10° N 23:49:22 38° ENE 23:49:36 37° ENE
Meteor 1-13 Rocket 4.2 23:45:21 10° N 23:51:09 71° E 23:51:27 69° ESE
ISS -0.8 23:54:35 10° NNW 23:56:24 14° N 23:57:24 13° NNE
